• In Hungary
  • List of Countries
  • For 7 days
  • Water Temperature
  • Satellite Maps
  • Weather Map
  • News
  • Weather Widgets
  • user-avatar
    Login

    Hourly Weather Tarin Kowt

    Today, 25 April, Wednesday

    Time Temperature Precipitation Wind Pressure Humidity
    00:00 +20°C° 0 mm 2 mps 618 mmHg 28%
    01:00 +19°C° 0 mm 2 mps 618 mmHg 29%
    02:00 +19°C° 0 mm 2 mps 618 mmHg 29%
    03:00 +18°C° 0 mm 2 mps 618 mmHg 29%
    04:00 +18°C° 0 mm 2 mps 618 mmHg 29%
    05:00 +19°C° 0 mm 2 mps 618 mmHg 28%
    06:00 +19°C° 0 mm 3 mps 619 mmHg 27%
    07:00 +20°C° 0 mm 3 mps 619 mmHg 26%
    08:00 +21°C° 0 mm 3 mps 620 mmHg 24%
    09:00 +24°C° 0 mm 3 mps 620 mmHg 22%
    10:00 +25°C° 0 mm 2 mps 620 mmHg 20%
    11:00 +26°C° 0 mm 3 mps 620 mmHg 19%
    12:00 +27°C° 0 mm 4 mps 620 mmHg 18%
    13:00 +27°C° 0 mm 4 mps 620 mmHg 17%
    14:00 +28°C° 0 mm 5 mps 620 mmHg 16%
    15:00 +28°C° 0 mm 5 mps 619 mmHg 15%
    16:00 +28°C° 0 mm 5 mps 619 mmHg 15%
    17:00 +27°C° 0 mm 5 mps 619 mmHg 17%
    18:00 +26°C° 0 mm 4 mps 618 mmHg 19%
    19:00 +25°C° 0 mm 3 mps 618 mmHg 21%
    20:00 +24°C° 0 mm 3 mps 618 mmHg 23%
    21:00 +23°C° 0 mm 2 mps 618 mmHg 25%
    22:00 +21°C° 0 mm 2 mps 618 mmHg 27%
    23:00 +21°C° 0 mm 1 mps 618 mmHg 28%

    Tomorrow, 26 April, Thursday

    Time Temperature Precipitation Wind Pressure Humidity
    00:00 +21°C° 0 mm 1 mps 617 mmHg 29%
    01:00 +20°C° 0 mm 1 mps 617 mmHg 30%
    02:00 +20°C° 0 mm 1 mps 617 mmHg 30%
    03:00 +20°C° 0 mm 1 mps 617 mmHg 29%
    04:00 +20°C° 0 mm 1 mps 617 mmHg 29%
    05:00 +21°C° 0 mm 1 mps 617 mmHg 27%
    06:00 +21°C° 0 mm 1 mps 618 mmHg 25%
    07:00 +22°C° 0 mm 1 mps 618 mmHg 22%
    08:00 +23°C° 0 mm 2 mps 619 mmHg 22%
    09:00 +23°C° 0 mm 4 mps 619 mmHg 21%
    10:00 +26°C° 0 mm 5 mps 620 mmHg 20%
    11:00 +26°C° 0 mm 6 mps 619 mmHg 19%
    12:00 +27°C° 0 mm 6 mps 619 mmHg 19%
    13:00 +28°C° 0 mm 7 mps 619 mmHg 18%
    14:00 +27°C° 0 mm 7 mps 619 mmHg 18%
    15:00 +27°C° 0 mm 7 mps 618 mmHg 18%
    16:00 +27°C° 0 mm 6 mps 618 mmHg 17%
    17:00 +26°C° 0 mm 6 mps 618 mmHg 19%
    18:00 +25°C° 0 mm 5 mps 618 mmHg 20%
    19:00 +23°C° 0 mm 4 mps 617 mmHg 21%
    20:00 +22°C° 0 mm 3 mps 617 mmHg 23%
    21:00 +21°C° 0 mm 2 mps 618 mmHg 24%
    22:00 +20°C° 0 mm 2 mps 618 mmHg 26%
    23:00 +20°C° 0 mm 1 mps 617 mmHg 27%

    Day after tomorrow, 27 April, Friday

    Time Temperature Precipitation Wind Pressure Humidity
    00:00 +20°C° 0 mm 1 mps 617 mmHg 28%
    01:00 +19°C° 0 mm 1 mps 617 mmHg 29%
    02:00 +19°C° 0 mm 1 mps 616 mmHg 29%
    03:00 +18°C° 0 mm 1 mps 616 mmHg 30%
    04:00 +15°C° 0 mm 0 mps 616 mmHg 31%
    05:00 +18°C° 0 mm 1 mps 617 mmHg 28%
    06:00 +20°C° 0 mm 1 mps 618 mmHg 24%
    07:00 +21°C° 0 mm 1 mps 618 mmHg 21%
    08:00 +22°C° 0 mm 1 mps 619 mmHg 19%
    09:00 +23°C° 0 mm 2 mps 619 mmHg 18%
    10:00 +24°C° 0 mm 2 mps 620 mmHg 16%
    11:00 +25°C° 0 mm 2 mps 620 mmHg 15%
    12:00 +26°C° 0 mm 3 mps 620 mmHg 14%
    13:00 +27°C° 0 mm 4 mps 620 mmHg 13%
    14:00 +27°C° 0 mm 4 mps 620 mmHg 12%
    15:00 +27°C° 0 mm 4 mps 619 mmHg 12%
    16:00 +27°C° 0 mm 4 mps 619 mmHg 12%
    17:00 +26°C° 0 mm 3 mps 619 mmHg 14%
    18:00 +25°C° 0 mm 3 mps 619 mmHg 16%
    19:00 +24°C° 0 mm 2 mps 619 mmHg 18%
    20:00 +23°C° 0 mm 2 mps 619 mmHg 19%
    21:00 +21°C° 0 mm 2 mps 619 mmHg 21%
    22:00 +22°C° 0 mm 1 mps 619 mmHg 22%
    23:00 +21°C° 0 mm 1 mps 619 mmHg 23%

    28 April, Saturday

    Time Temperature Precipitation Wind Pressure Humidity
    00:00 +20°C° 0 mm 1 mps 618 mmHg 25%
    01:00 +19°C° 0 mm 1 mps 618 mmHg 26%
    02:00 +19°C° 0 mm 1 mps 617 mmHg 26%
    03:00 +18°C° 0 mm 1 mps 617 mmHg 26%
    04:00 +18°C° 0 mm 1 mps 617 mmHg 27%
    05:00 +19°C° 0 mm 1 mps 618 mmHg 24%
    06:00 +20°C° 0 mm 1 mps 619 mmHg 21%
    07:00 +22°C° 0 mm 1 mps 619 mmHg 18%
    08:00 +23°C° 0 mm 1 mps 620 mmHg 16%
    09:00 +24°C° 0 mm 1 mps 620 mmHg 15%
    10:00 +25°C° 0 mm 1 mps 621 mmHg 13%
    11:00 +26°C° 0 mm 2 mps 621 mmHg 12%
    12:00 +27°C° 0 mm 3 mps 620 mmHg 12%
    13:00 +28°C° 0 mm 4 mps 620 mmHg 11%
    14:00 +29°C° 0 mm 4 mps 620 mmHg 12%
    15:00 +29°C° 0 mm 5 mps 620 mmHg 12%
    16:00 +29°C° 0 mm 5 mps 620 mmHg 13%
    17:00 +28°C° 0 mm 4 mps 620 mmHg 15%
    18:00 +27°C° 0 mm 4 mps 620 mmHg 17%
    19:00 +26°C° 0 mm 3 mps 620 mmHg 20%
    20:00 +25°C° 0 mm 3 mps 620 mmHg 21%
    21:00 +24°C° 0 mm 2 mps 620 mmHg 23%
    22:00 +23°C° 0 mm 2 mps 620 mmHg 24%
    23:00 +22°C° 0 mm 1 mps 619 mmHg 26%

    29 April, Sunday

    Time Temperature Precipitation Wind Pressure Humidity
    00:00 +22°C° 0 mm 1 mps 619 mmHg 27%
    01:00 +21°C° 0 mm 1 mps 618 mmHg 28%
    02:00 +21°C° 0 mm 1 mps 618 mmHg 28%
    03:00 +20°C° 0 mm 1 mps 618 mmHg 27%
    04:00 +19°C° 0 mm 2 mps 618 mmHg 27%
    05:00 +20°C° 0 mm 2 mps 619 mmHg 25%
    06:00 +21°C° 0 mm 2 mps 619 mmHg 24%
    07:00 +23°C° 0 mm 2 mps 620 mmHg 22%
    08:00 +24°C° 0 mm 2 mps 621 mmHg 19%
    09:00 +26°C° 0 mm 2 mps 621 mmHg 17%
    10:00 +27°C° 0 mm 2 mps 621 mmHg 14%
    11:00 +28°C° 0 mm 3 mps 621 mmHg 13%
    12:00 +29°C° 0 mm 3 mps 621 mmHg 13%
    13:00 +30°C° 0 mm 4 mps 620 mmHg 12%
    14:00 +30°C° 0 mm 4 mps 620 mmHg 12%
    15:00 +30°C° 0 mm 4 mps 619 mmHg 12%
    16:00 +30°C° 0 mm 4 mps 619 mmHg 12%
    17:00 +29°C° 0 mm 3 mps 619 mmHg 15%
    18:00 +28°C° 0 mm 3 mps 619 mmHg 17%
    19:00 +27°C° 0 mm 2 mps 618 mmHg 20%
    20:00 +26°C° 0 mm 2 mps 618 mmHg 21%
    21:00 +25°C° 0 mm 2 mps 618 mmHg 23%
    22:00 +24°C° 0 mm 1 mps 618 mmHg 25%
    23:00 +24°C° 0 mm 1 mps 617 mmHg 25%

    30 April, Monday

    Time Temperature Precipitation Wind Pressure Humidity
    00:00 +23°C° 0 mm 1 mps 617 mmHg 26%
    01:00 +22°C° 0 mm 1 mps 616 mmHg 26%
    02:00 +22°C° 0 mm 1 mps 616 mmHg 27%
    03:00 +22°C° 0 mm 1 mps 616 mmHg 27%
    04:00 +21°C° 0 mm 1 mps 615 mmHg 28%
    05:00 +22°C° 0 mm 1 mps 616 mmHg 26%
    06:00 +23°C° 0 mm 1 mps 616 mmHg 24%
    07:00 +24°C° 0 mm 1 mps 617 mmHg 23%
    08:00 +25°C° 0 mm 2 mps 617 mmHg 21%
    09:00 +27°C° 0 mm 2 mps 618 mmHg 18%
    10:00 +28°C° 0 mm 2 mps 618 mmHg 16%
    11:00 +29°C° 0 mm 4 mps 618 mmHg 16%
    12:00 +30°C° 0 mm 5 mps 618 mmHg 15%
    13:00 +32°C° 0 mm 7 mps 618 mmHg 14%
    14:00 +30°C° 0 mm 7 mps 617 mmHg 14%
    15:00 +31°C° 0 mm 8 mps 617 mmHg 14%
    16:00 +31°C° 0 mm 9 mps 617 mmHg 14%
    17:00 +29°C° 0 mm 8 mps 616 mmHg 15%
    18:00 +27°C° 0 mm 6 mps 616 mmHg 17%
    19:00 +26°C° 0 mm 5 mps 616 mmHg 18%
    20:00 +25°C° 0 mm 5 mps 616 mmHg 20%
    21:00 +23°C° 0 mm 4 mps 617 mmHg 21%
    22:00 +22°C° 0 mm 3 mps 617 mmHg 23%
    23:00 +21°C° 0 mm 2 mps 616 mmHg 25%
    Show more